EW9765 Weather Reports


time (UTC)temp
C
wind
direction
speed
KPH
gust
KPH
rain 1hr
cm
rain 24hr
cm
rain mn
cm
humidity
%
barometer
mb
20260509111512 7 180 0.0 8.0 0.00 0.13 0.00 99 1007.6
20260509110008 7 154 3.2 8.0 0.00 0.13 0.00 100 1007.6
20260509104508 6 284 0.0 6.4 0.00 0.13 0.00 99 1007.7
20260509103004 6 284 0.0 3.2 0.00 0.13 0.00 99 1007.7
20260509101503 6 284 0.0 0.0 0.00 0.13 0.00 99 1007.6
20260509100059 6 284 0.0 3.2 0.00 0.13 0.00 99 1007.7
20260509094600 6 284 0.0 0.0 0.00 0.13 0.00 98 1007.6
20260509093058 5 284 0.0 1.6 0.00 0.13 0.00 99 1007.5
20260509091622 5 284 0.0 1.6 0.00 0.13 0.00 100 1007.7
20260509090054 5 284 0.0 0.0 0.00 0.13 0.00 98 1007.7
20260509084551 5 284 0.0 0.0 0.00 0.13 0.00 97 1007.9
20260509083054 5 284 0.0 0.0 0.00 0.13 0.00 98 1007.9
20260509081549 5 284 0.0 0.0 0.00 0.13 0.00 97 1008.0
20260509080052 5 284 0.0 3.2 0.00 0.13 0.00 98 1008.1
20260509074552 5 284 0.0 1.6 0.00 0.13 0.00 96 1008.2
20260509073114 5 284 0.0 0.0 0.00 0.13 0.00 95 1008.4
20260509071542 5 284 0.0 3.2 0.00 0.13 0.00 95 1008.5
20260509070044 4 284 0.0 3.2 0.00 0.13 0.00 96 1008.6
20260509064539 4 284 1.6 4.8 0.00 0.13 0.00 97 1008.8
20260509063038 4 284 0.0 4.8 0.00 0.13 0.00 97 1008.9
20260509061536 4 284 0.0 3.2 0.00 0.13 0.00 97 1009.2
20260509060045 4 284 3.2 6.4 0.00 0.15 0.00 99 1009.4
20260509054532 4 284 1.6 4.8 0.00 0.15 0.00 99 1009.6
20260509053033 4 284 0.0 1.6 0.00 0.15 0.00 97 1009.6
20260509051527 5 284 0.0 3.2 0.00 0.15 0.00 99 1009.8
20260509050025 5 284 3.2 4.8 0.00 0.15 0.00 100 1010.0
20260509044533 4 284 0.0 4.8 0.00 0.15 0.00 99 1010.1
20260509043029 4 284 1.6 3.2 0.00 0.15 0.00 100 1010.2
20260509041517 3 284 0.0 1.6 0.00 0.15 0.00 100 1010.3
20260509040014 3 284 0.0 1.6 0.00 0.15 0.15 100 1010.5
20260509034514 4 284 0.0 1.6 0.00 0.15 0.15 99 1010.5
20260509033014 4 284 0.0 3.2 0.00 0.15 0.15 98 1010.4
20260509031516 4 284 0.0 3.2 0.00 0.15 0.15 97 1010.5
20260509030012 5 284 0.0 0.0 0.00 0.18 0.15 97 1010.6
20260509024512 5 284 0.0 1.6 0.00 0.18 0.15 95 1010.6
20260509023011 5 284 0.0 1.6 0.00 0.18 0.15 92 1010.6
20260509021511 5 284 0.0 0.0 0.00 0.18 0.15 90 1010.5
20260509020010 6 284 0.0 0.0 0.00 0.18 0.15 87 1010.5
20260509014509 6 284 0.0 0.0 0.00 0.18 0.15 86 1010.5
20260509013009 6 284 0.0 0.0 0.00 0.18 0.15 84 1010.4
20260509011509 7 284 0.0 0.0 0.00 0.18 0.15 81 1010.4
20260509010016 8 285 0.0 0.0 0.00 0.18 0.15 77 1010.2
20260509004507 9 284 0.0 0.0 0.00 0.18 0.15 76 1010.0
20260509003017 10 285 0.0 0.0 0.00 0.18 0.15 75 1009.8
20260509001507 11 284 0.0 0.0 0.00 0.18 0.15 65 1009.7
20260509000006 11 284 0.0 4.8 0.00 0.18 0.15 60 1009.7
20260508234507 12 284 0.0 4.8 0.00 0.18 0.15 57 1009.6
20260508233006 12 284 1.6 8.0 0.00 0.18 0.15 57 1009.6
20260508231505 12 276 3.2 9.7 0.00 0.18 0.15 53 1009.5
20260508230007 13 277 3.2 11.3 0.00 0.18 0.15 51 1009.5
20260508224516 13 289 3.2 12.9 0.00 0.18 0.15 48 1009.4
20260508223013 13 288 3.2 11.3 0.00 0.18 0.15 48 1009.4
20260508221504 14 236 3.2 14.5 0.00 0.18 0.15 46 1009.3
20260508220001 13 288 4.8 20.9 0.00 0.18 0.15 47 1009.3
20260508214612 14 274 3.2 11.3 0.00 0.18 0.15 48 1009.4
20260508213059 14 278 3.2 16.1 0.00 0.18 0.15 51 1009.4
20260508213002 14 208 3.2 16.1 0.00 0.18 0.15 51 1009.4
20260508211601 14 267 4.8 11.3 0.00 0.18 0.15 52 1009.4
20260508210059 14 278 4.8 12.9 0.00 0.18 0.15 53 1009.5
20260508204557 14 290 3.2 11.3 0.00 0.18 0.15 52 1009.6
20260508203100 13 290 1.6 11.3 0.00 0.18 0.15 55 1009.8
20260508201553 14 284 1.6 6.4 0.00 0.18 0.15 57 1009.9
20260508200049 13 273 4.8 16.1 0.00 0.18 0.15 56 1010.2
20260508194545 14 319 3.2 9.7 0.00 0.18 0.15 56 1010.3
20260508193057 13 278 8.0 16.1 0.00 0.18 0.15 58 1010.6
20260508191544 12 298 1.6 8.0 0.00 0.18 0.15 59 1010.8
20260508190040 12 293 3.2 16.1 0.00 0.18 0.15 61 1011.0
20260508184543 12 284 4.8 20.9 0.00 0.18 0.15 59 1011.0
20260508183038 13 290 3.2 11.3 0.00 0.18 0.15 59 1010.9
20260508181541 12 274 8.0 14.5 0.00 0.18 0.15 61 1011.1
20260508180038 12 189 4.8 17.7 0.00 0.18 0.15 63 1011.3
20260508174536 12 344 4.8 14.5 0.00 0.18 0.15 58 1011.4
20260508173030 11 264 6.4 12.9 0.00 0.18 0.15 66 1011.5
20260508171539 11 260 1.6 8.0 0.00 0.18 0.15 72 1011.6
20260508170024 11 319 1.6 12.9 0.00 0.18 0.15 74 1011.8
20260508164520 10 246 9.7 17.7 0.00 0.18 0.15 75 1011.9
20260508163020 10 300 3.2 12.9 0.00 0.18 0.15 79 1011.9
20260508161515 9 251 6.4 19.3 0.00 0.18 0.15 80 1012.1
20260508160025 8 286 1.6 14.5 0.00 0.18 0.15 87 1012.3
20260508154511 9 288 6.4 11.3 0.00 0.18 0.15 87 1012.3
20260508153006 8 213 6.4 9.7 0.00 0.18 0.15 91 1012.4
20260508151503 7 305 8.0 14.5 0.00 0.18 0.15 95 1012.4
20260508150100 7 197 6.4 12.9 0.00 0.18 0.15 97 1012.4
20260508144556 6 198 4.8 9.7 0.00 0.18 0.15 99 1012.3
20260508143103 6 188 3.2 8.0 0.00 0.18 0.15 100 1012.3
20260508141556 5 274 0.0 9.7 0.00 0.18 0.15 100 1012.5
20260508140050 5 274 4.8 9.7 0.00 0.18 0.15 100 1012.5
20260508134548 5 170 0.0 8.0 0.03 0.18 0.15 100 1012.4
20260508133055 5 214 3.2 8.0 0.03 0.18 0.15 100 1012.1
20260508131547 5 269 0.0 9.7 0.08 0.18 0.15 100 1012.2
20260508130053 4 308 1.6 8.0 0.10 0.18 0.15 100 1012.4
20260508124546 4 279 3.2 11.3 0.10 0.15 0.13 100 1012.5
20260508123044 4 276 3.2 12.9 0.10 0.15 0.13 100 1012.4
20260508121559 5 272 4.8 11.3 0.05 0.10 0.08 100 1012.3
20260508120041 5 290 12.9 22.5 0.03 0.08 0.05 100 1012.2
20260508114538 5 298 3.2 8.0 0.00 0.05 0.03 98 1011.9
20260508113037 5 284 3.2 11.3 0.00 0.05 0.03 98 1011.3